LUCH-5V

Last updated on Thu Jul 03 2025 00:02:46 GMT+0000 (Coordinated Universal Time)

1 39727U 14023A 25183.61718291 -.00000264 00000+0 00000+0 0 9993 2 39727 4.2563 73.0970 0002156 64.3080 100.4310 1.00272701 40857
UTC large
Height (km)
Speed (km/s)
/
Latitude / Longitude
Inclination (degrees)
Orbital Period (minutes)
Azimuth
Elevation
Range (km)
Doppler Factor

Next 0 passes for location: London (51.5072 / 0.1276)

Sorry there are no passes over London.